Lid_Strength_Index
8 11 13 11 11 10 11 13 13 11 9 11 11 13 13 12 13 13 13 13 10 7 4 3 3 2 3 3 3 2 2 1 1 1 2 2 2 2 3 2 1 1 1 1
11 13 10 10 10 11 11 13 14 11 9 11 11 12 11 11 12 11 12 13 12 9 7 5 4 3 3 3 3 2 2 1 1 1 1 1 1 1 1 1 1 1 1 1
12 11 8 10 11 12 12 13 13 13 12 11 12 13 12 11 12 12 11 12 11 10 9 7 5 4 3 3 3 3 2 2 1 1 1 2 2 3 2 2 1 1 0 1
11 8 10 11 12 11 15 11 11 12 13 17 12 19 13 11 11 13 12 12 12 11 9 8 6 5 4 3 2 2 3 2 2 2 2 2 2 3 2 2 1 2 1 1
13 11 11 12 12 10 13 10 11 12 14 15 15 18 17 13 14 12 12 12 11 11 10 8 6 5 4 3 3 2 2 3 2 2 2 2 2 1 2 2 3 2 2 1
11 9 9 10 9 9 9 11 12 13 14 19 15 16 16 14 14 12 12 12 10 11 11 9 6 5 5 4 3 2 2 2 2 2 2 2 2 2 3 3 2 3 2 2
12 11 10 9 12 10 11 13 19 20 20 20 15 16 15 13 14 12 12 12 10 10 10 9 8 6 5 5 3 3 3 2 2 2 2 2 2 2 3 2 3 3 3 3
15 17 12 9 10 13 13 13 18 22 22 20 18 18 15 12 10 11 12 12 11 11 10 11 8 6 5 4 3 3 3 2 2 2 2 1 2 2 2 2 2 2 2 2
16 15 11 9 9 9 13 16 11 16 22 21 20 18 15 14 15 14 13 14 14 12 12 11 9 6 5 4 4 3 3 2 2 2 2 2 2 2 2 3 2 2 2 2
12 16 11 10 9 9 11 10 16 16 21 22 19 20 17 16 14 13 15 14 14 14 12 13 11 7 6 5 4 3 2 2 3 3 2 3 2 2 3 3 2 2 2 2
10 13 14 11 13 14 13 14 14 14 16 19 22 19 16 13 13 13 12 12 14 14 14 13 13 11 10 9 8 5 5 5 6 5 5 5 5 5 5 5 5 4 4 3
10 12 16 14 10 9 10 13 13 17 18 19 20 17 16 16 16 15 15 15 15 14 14 14 13 12 11 10 10 8 9 7 7 6 6 6 6 7 7 8 8 7 8 8
10 13 17 16 13 12 13 12 12 12 15 17 19 16 16 17 17 16 16 16 15 14 14 13 12 11 11 10 10 10 9 8 8 7 6 7 8 8 9 10 10 10 10 10
10 13 15 17 15 13 15 13 12 13 17 16 16 14 16 16 17 15 16 15 16 14 13 13 12 11 11 10 10 10 9 8 8 8 7 8 8 9 9 10 10 10 10 10
11 16 13 13 12 12 13 13 13 14 13 15 14 15 13 14 15 15 15 16 15 14 13 13 12 12 11 10 10 10 10 9 9 9 9 10 10 10 10 10 11 11 11 11
11 18 14 15 13 12 14 13 12 12 12 12 12 13 12 12 15 15 15 15 15 14 13 13 12 12 11 10 10 10 10 10 9 9 10 11 11 12 12 11 12 12 12 12
13 15 16 19 14 15 17 13 13 12 11 12 14 12 11 12 13 13 14 15 15 13 13 12 11 11 10 10 9 10 10 11 11 12 13 13 14 12 12 13 13 13 13 13
14 15 16 19 17 21 13 11 10 11 11 10 10 9 9 10 9 9 12 13 14 14 13 12 12 11 11 11 11 11 11 11 13 14 14 14 14 13 13 13 13 14 15 15
10 13 18 20 21 17 15 12 12 12 13 10 10 9 11 9 12 11 11 12 12 13 13 11 11 11 11 11 10 11 13 13 14 14 14 14 14 15 15 15 16 17 17 18
9 10 15 19 19 22 14 11 9 10 15 9 9 9 9 12 14 12 8 9 12 12 13 13 12 13 12 12 12 13 13 14 14 14 14 14 15 15 16 17 18 18 20 18
14 13 16 16 18 17 13 12 9 16 14 9 9 9 9 11 11 10 10 12 12 12 13 13 13 12 12 14 13 13 14 14 14 15 15 16 17 17 17 19 20 17 19 18
14 15 16 16 18 20 13 11 13 10 11 13 8 8 8 8 8 10 12 12 14 14 14 14 14 14 15 14 13 14 14 15 16 16 17 19 19 18 18 19 21 19 19 20
14 12 14 14 15 12 11 11 8 12 10 10 11 11 9 9 8 8 10 14 15 15 15 16 15 17 18 15 13 14 17 17 17 17 19 20 20 19 19 19 19 20 20 19
11 9 13 12 12 11 10 10 12 12 12 13 13 13 11 10 10 11 11 16 16 17 17 18 16 17 19 19 17 17 18 17 17 19 19 20 20 21 23 20 19 19 20 20
10 10 13 13 12 12 11 11 11 12 12 13 14 14 13 13 14 15 16 16 17 18 18 17 16 17 20 20 19 18 18 17 18 19 20 21 20 20 21 21 21 20 21 20
9 11 13 14 11 12 10 9 10 12 12 12 14 14 14 14 15 15 17 17 17 18 18 19 20 20 21 20 21 20 18 18 18 20 20 20 20 21 21 20 21 15 15 14